Location: Bosdarros
(43.2167°N, 0.3667°W)
Time: 07:52:55
(UTC+00:00)

Cosmos 1741 Rocket - Pass Details

Date: 22 April 2021
Orbit: 762 x 782 km, 74.0° (Epoch: 07 May)

Event Time Altitude Azimuth Distance (km) Brightness Sun altitude
Exits shadow 22:05:12 75° 330° (NNW) 808 4.1 -28.4°
Drops below altitude 10° 22:10:12 10° 18° (NNE) 2,328 7.0 -28.9°
Sets 22:12:36 0° 20° (NNE) 3,256 7.8 -29.1°
